Regional Weather Roundup
Issued by NWS

Home | Current Version | Previous Version | Text Only | Print | Product List | Glossary On
Versions: 1 2 3 4 5 6 7 8 9 10 11 12 13 14 15 16 17 18 19 20 21 22 23 24 25 26 27 28 29 30 31 32 33 34 35 36 37 38 39 40 41 42 43 44 45 46 47 48 49 50
854
ASUS44 KLIX 260710
RWRLA
LOUISIANA WEATHER ROUNDUP
NATIONAL WEATHER SERVICE NEW ORLEANS LA
100 AM CST WED NOV 26 2014

NOTE: "FAIR" INDICATES FEW OR NO CLOUDS BELOW 12,000 FEET WITH NO
      SIGNIFICANT WEATHER AND/OR OBSTRUCTIONS TO VISIBILITY.
      SKY/WX - SKY CONDITION AND SIGNIFICANT WEATHER.
      TMP - AIR TEMPERATURE.    DP   - DEWPOINT TEMPERATURE.
      RH  - RELATIVE HUMIDITY.  PRES - PRESSURE.
      HX  - HEAT INDEX.         WCI  - WIND CHILL INDEX.

*  THESE STATIONS ARE NOT NWS OR FAA STATIONS AND ARE NOT UNDER
   NWS QUALITY CONTROL.

LAZ040-048-061>063-065-066-069-260800-
SOUTHEAST LOUISIANA

CITY           SKY/WX    TMP DP  RH WIND       PRES   REMARKS
N.O. AUDUBON     N/A     47  36  65 MISG        N/A
N.O. INTL ARPT CLEAR     46  32  58 N5        30.23S
N.O. LAKEFRONT CLEAR     49  34  56 N16       30.23S
N.O. DOWNTOWN* FAIR      48  32  53 N3        30.23S
SLIDELL        CLEAR     39  32  76 CALM      30.21S
BATON ROUGE    CLEAR     34  32  92 CALM      30.22F
BOOTHVILLE     CLEAR     50  36  58 NW13      30.21S
BELLE CHASSE   CLEAR     46  34  62 CALM      30.22S
BOGALUSA*        N/A     35  32  88 CALM      30.22S
NEW ROADS*     FAIR      34  33  96 CALM      30.22S
GONZALES*      FAIR      36  35  99 CALM      30.23F
HAMMOND*       CLEAR     36  32  87 CALM      30.24S
HOUMA*         CLEAR     41  34  76 NW6       30.23F
PORT FOURCHON* SUNNY     48  37  66 N12       30.26S

$$

LAZ041-044-053-054-260800-
SOUTHWEST LOUISIANA

CITY           SKY/WX    TMP DP  RH WIND       PRES   REMARKS
LAKE CHARLES   CLEAR     38  37  97 CALM      30.21F
LAFAYETTE      PTCLDY    38  35  89 CALM      30.23S
PATTERSON      CLEAR     36  34  93 CALM      30.25F
SALT POINT       N/A     47  37  68 CALM      30.22F
NEW IBERIA     CLEAR     37  35  92 CALM      30.24S
CHENAULT AIRPK CLEAR     40  38  95 S3        30.23S

$$

LAZ027-028-260800-
CENTRAL LOUISIANA

CITY           SKY/WX    TMP DP  RH WIND       PRES   REMARKS
FORT POLK      PTCLDY    38  36  94 S2        30.19F
ALEXANDRIA INT CLEAR     35  34  96 SE5       30.18F WCI  31
ALEXANDRIA     CLEAR     32  30  92 CALM      30.19F

$$

LAZ001-002-260800-
NORTHWEST LOUISIANA

CITY           SKY/WX    TMP DP  RH WIND       PRES   REMARKS
SHREVEPORT     CLOUDY    45  35  68 SW7       30.14F
BARKSDALE AFB  MOCLDY    39  33  81 SE6       30.15F WCI  34
DTN SHREVEPORT CLOUDY    45  33  63 SW5       30.14F

$$

LAZ014-016-260800-
NORTHEAST LOUISIANA

CITY           SKY/WX    TMP DP  RH WIND       PRES   REMARKS
MONROE         CLEAR     34  33  96 CALM      30.18F
TALLULAH       CLEAR     29  27  92 CALM      30.19F FOG

$$




USA.gov is the U.S. government's official web portal to all federal, state and local government web resources and services.